STARLINK-1290 (45392 NORAD) Tracking and Keplerian Element Data

This shows tracking and keplerian element data for the satellite.

Feedback or suggestion? Click here.




ElementValue
Catalog45392
NameSTARLINK-1290
Epoch Orbit1146
Epoch Day149.33334491
Epoch Year2020
RAAN268.2883
Inclination52.9974
Eccentricity0.0004386
Argument of Perigee15.0225
Mean Anonmoly299.444
Mean Motion15.41555372
Decay Rate0.0667025
L11 45392U 20019AJ 20149.33334491 .06670250 00000-0 13160+0 0 9997
L22 45392 52.9974 268.2883 0004386 15.0225 299.4440 15.41555372 11466

Live tracking and technical data element details for STARLINK-1290 (NORAD 45392). STARLINK-1290 can be tracked NOW for your location showing map with azimuth and elevation plus other details from your city location.

Track the satellite on the map from your city or location and see movement details for azimuth, elevation, latitude, longitude, range, height, and movement on the map or in text.







IsCatalogInMostPopularTable: catalog: 45392, numindb: 21
Update: records affected: 1



GetName: 45392 STARLINK-1290

Hit Count: updated at: Sat, 30 May 2020 15:18:31 GMT